Retour au catalogue

STARLINK-32430

ActifCommunicationsVLEO
NORAD 62207·PAYLOAD·🇺🇸 United States

Lancé Dec 4, 2024 depuis Cape Canaveral Space Force Station

Loading…

Prochains Passages (prochaines 24 heures)

TLE

FraisSource: CelesTrak SupGP

Époque: Sep 14, 2026, 21:32 UTC

1 62207C 24229R   26257.89770833  .00016104  00000+0  58338-3 0  2571
2 62207  42.9999 278.8833 0001522 263.9600 191.6082 15.27565351    14

Suivez STARLINK-32430 en temps réel avec AllMySat

Download on the App Store